Regional Weather Roundup
Issued by NWS Northern Indiana

Home | Current Version | Previous Version | Graphics & Text | Print | Product List | Glossary On
Versions: 1 2 3 4 5 6 7 8 9 10 11 12 13 14 15 16 17 18 19 20 21 22 23 24 25 26 27 28 29 30 31 32 33 34 35 36 37 38 39 40 41 42 43 44 45 46 47 48 49 50
000
ASUS43 KIWX 010710
RWRIWX

KIWX WEATHER ROUNDUP
NATIONAL WEATHER SERVICE NORTHERN INDIANA
200 AM EST SUN FEB 01 2015

NOTE: "FAIR" INDICATES FEW OR NO CLOUDS BELOW 12,000 FEET WITH NO
SIGNIFICANT WEATHER AND/OR OBSTRUCTIONS TO VISIBILITY.

* THESE STATIONS ARE NOT UNDER NWS QUALITY CONTROL. THEY ALSO MAY NOT
  REPORT WEATHER SUCH AS PRECIPITATION OR FOG.

INZ001>027-010800-
NORTHERN INDIANA

CITY           SKY/WX    TMP DP  RH WIND       PRES   REMARKS
GARY*          LGT SNOW  33  31  91 CALM      30.13F VSB 1
VALPARAISO     LGT SNOW  32  31  96 S5        30.13F VSB 1   WCI  27
MICHIGAN CITY* LGT SNOW  32  30  93 CALM      30.14F
LAPORTE*       LGT SNOW  34  34 100 CALM      30.14F
KNOX*          CLOUDY    32  28  86 CALM      30.13F VSB 3/4
SOUTH BEND     LGT SNOW  31  29  92 NE5       30.14F FOG     WCI  26
GOSHEN         LGT SNOW  33  31  92 S5        30.14F VSB 1   WCI  29
MONTICELLO*    LGT SNOW  32  32 100 S3        30.14F
LOGANSPORT*    LGT RAIN  32  32 100 S6        30.15F WCI  26
ROCHESTER*     LGT SNOW  34  34 100 S3        30.14F
WARSAW*        LGT SNOW  32  32 100 CALM      30.14F
ANGOLA*        CLOUDY    30  30 100 CALM      30.14S
FORT WAYNE     LGT SNOW  32  31  96 SW8       30.16F FOG     WCI  25
HUNTINGTON*    LGT SNOW  32  29  89 SW3       30.15F
PERU/GRISSOM   LGT RAIN  32  32 100 S6        30.13F FOG     WCI  26
MARION*        MIX PCPN  32  32 100 S5        30.15F WCI  27

$$
INZ028>050-010800-
CENTRAL INDIANA

CITY           SKY/WX    TMP DP  RH WIND       PRES   REMARKS
LAFAYETTE      MIX PCPN  32  32 100 S3        30.13F FOG
KOKOMO*        CLOUDY    34  30  86 S9        30.15F WCI  26
MUNCIE*        FRZ RAIN  32  31  96 S3        30.15F FOG
INDIANAPOLIS   CLOUDY    30  30 100 E3        30.14F FOG

$$
MIZ043>046-050>051-056>058-064>065-071>073-077>080-010800-
SOUTHWEST LOWER MICHIGAN

CITY           SKY/WX    TMP DP  RH WIND       PRES   REMARKS
BATTLE CREEK   LGT SNOW  30  27  88 NE3       30.16S VSB 3/4
BENTON HARBOR  LGT SNOW  29  28  96 E6        30.15F FOG     WCI  23
COLDWATER*     LGT SNOW  29  29  98 NE3       30.15S
HILLSDALE*     LGT SNOW  30  30 100 CALM      30.14S VSB 1
HOLLAND        LGT SNOW  29  25  85 NE6       30.18F FOG     WCI  23
GRAND RAPIDS   LGT SNOW  26  22  84 NE9       30.19R FOG     WCI  17
KALAMAZOO      LGT SNOW  30  27  88 CALM      30.16F VSB 3/4
STURGIS*       LGT SNOW  28  28 100 CALM      30.14F
THREE RIVERS*  LGT SNOW  30  28  95 CALM      30.15F

$$
OHZ001>008-015>018-024>025-010800-
NORTHWEST OHIO

CITY           SKY/WX    TMP DP  RH WIND       PRES   REMARKS
DEFIANCE       LGT SNOW  33  31  92 CALM      30.17F VSB 1
FINDLAY        LGT SNOW  32  30  92 SW5       30.16F FOG     WCI  27
TOLEDO EXPRESS LGT SNOW  30  28  93 CALM      30.17S VSB 1
TOLEDO METCALF LGT SNOW  31  29  92 SW6       30.18S FOG     WCI  25
LIMA           LGT SNOW  33  31  92 SW5       30.16F VSB 1   WCI  29

$$
AND FOR LAKE MICHIGAN COASTAL AND OPEN LAKE BUOY OBSERVATIONS

STATION/POSITION TEMP    WIND        PRES    VSBY  WAVE
                 AIR SEA DIR/SP/G                  HT/PER
                 (F)     (DEG/KT/KT) (MB)    (MI)  (FT/S)
CALUMET HARBOR    31      80/  6/  9   N/A
MICHIGAN CITY     30      50/  6/  7   N/A
SAINT JOSEPH      30      20/  2/  5 1021.3S

$$
&&


USA.gov is the U.S. government's official web portal to all federal, state and local government web resources and services.